Simultaneous Nadir Overpasses (SNOs) Predictions

Prediction of SNOs between AQUA and NOAA-19 Satellite Orbit:

Table of predicted SNOs for the next 14.0 days since TLE Epoch: 6/23/2017
Index Date (AQUA) Time (AQUA) Lat,Lon (AQUA) SZA (AQUA ) Date (NOAA-19) Time (NOAA-19) Lat,Lon (NOAA-19) SZA (NOAA-19 ) Distance(km) Time Diff (sec)
1 06/24/2017 16:35:13 -80.96, 70.76 120.10 06/24/2017 16:34:27 -80.95, 70.70 120.07 1.01 46
2 06/24/2017 17:24:40 80.96,-121.69 59.92 06/24/2017 17:25:29 80.95,-121.87 59.91 3.30 49
3 06/26/2017 22:08:56 80.96, 167.24 60.01 06/26/2017 22:08:18 80.95, 167.15 60.03 1.76 38
4 06/26/2017 22:58:22 -80.95, -24.98 120.02 06/26/2017 22:59:15 -80.95, -25.00 120.04 0.45 53
5 06/29/2017 03:42:38 -80.95, -96.04 119.91 06/29/2017 03:42:04 -80.95, -96.18 119.87 2.57 34
6 06/29/2017 04:32:04 80.94, 71.78 60.07 06/29/2017 04:33:06 80.95, 71.61 60.07 3.41 62
7 07/01/2017 09:16:20 80.94, 0.65 60.23 07/01/2017 09:15:55 80.95, 0.58 60.26 1.88 25
8 07/01/2017 10:05:47 -80.95, 168.17 119.75 07/01/2017 10:06:52 -80.95, 168.08 119.77 1.66 65
9 07/03/2017 14:50:03 -80.95, 97.06 119.57 07/03/2017 14:49:40 -80.95, 97.24 119.58 3.07 23
10 07/03/2017 15:39:22 80.76, -92.80 60.03 07/03/2017 15:40:36 80.94, -92.39 60.09 21.84 74
11 07/05/2017 20:23:45 80.96,-166.38 60.66 07/05/2017 20:23:33 80.95,-166.50 60.67 2.06 12




NCC Satellite Simultaneous Nadir Overpasses (SNOs) Prediction Service
